Regional Weather Roundup
Issued by NWS

Home | Current Version | Previous Version | Graphics & Text | Print | Product List | Glossary On
Versions: 1 2 3 4 5 6 7 8 9 10 11 12 13 14 15 16 17 18 19 20 21 22 23 24 25 26 27 28 29 30 31 32 33 34 35 36 37 38 39 40 41 42 43 44 45 46 47 48 49 50
000
ASUS45 KCYS 290210
RWRWY

WYOMING REGIONAL WEATHER ROUNDUP
NATIONAL WEATHER SERVICE CHEYENNE WY
700 PM MST WED JAN 28 2015

NOTE:  "FAIR" INDICATES FEW OR NO CLOUDS BELOW 12,000 FEET
WITH NO SIGNIFICANT WEATHER AND/OR OBSTRUCTIONS TO VISIBILITY.

WYZ001-290300-
YELLOWSTONE NATIONAL PARK

CITY           SKY/WX    TMP DP  RH WIND       PRES   REMARKS
LK YELLOWSTONE   N/A     23  21  92 CALM      30.35R
W YELLOWSTONE  NOT AVBL

$$
WYZ002>013-054>058-071-098>099-290300-
NORTHERN WYOMING

CITY           SKY/WX    TMP DP  RH WIND       PRES   REMARKS
JACKSON        PTCLDY    34  30  86 CALM      30.31R
CODY           CLOUDY    39  25  56 NW9       30.29R WCI  33
GREYBULL       FOG       34  33  96 NE3       30.28R VSB 1/4
WORLAND        CLOUDY    36  32  85 S8        30.27R WCI  30
SHERIDAN       CLOUDY    41  31  67 NW13      30.32R
BUFFALO        CLOUDY    39  30  70 N12G26    30.30R WCI  32
GILLETTE       CLOUDY    36  29  75 NW13      30.28R WCI  27
HULETT           N/A    N/A N/A N/A MISG        N/A
NEWCASTLE      FAIR      34  28  80 NW10G17   30.22R WCI  26

$$
WYZ014>020-022>026-101>103-290300-
CENTRAL WYOMING

CITY           SKY/WX    TMP DP  RH WIND       PRES   REMARKS
BIG PINEY      FAIR      30  24  78 N10       30.29R WCI  21
PINEDALE       FAIR      32  28  86 W10       30.29R WCI  24
DUBOIS         CLOUDY    32  27  80 NW8       30.28R WCI  25
LANDER         CLOUDY    39  32  76 W3        30.27R
RIVERTON       CLOUDY    38  29  70 N8        30.29R WCI  32
CASPER         CLOUDY    37  32  82 CALM      30.28R
DOUGLAS        CLOUDY    40  29  64 W9        30.26R WCI  34

$$
WYZ021-027>030-104>119-290300-
SOUTHERN WYOMING

CITY           SKY/WX    TMP DP  RH WIND       PRES   REMARKS
EVANSTON       FAIR      34  29  82 NW8       30.32R WCI  27
KEMMERER       FAIR      32  32 100 W8        30.32R WCI  25
FORT BRIDGER   FAIR      34  32  94 W8        30.34R WCI  27
ROCK SPRINGS   CLOUDY    36  29  75 SW12      30.29R WCI  28
DIXON          CLOUDY    36  32  86 N5        30.32R WCI  32
RAWLINS        CLOUDY    37  31  78 W6        30.28R WCI  32
SARATOGA       DRIZZLE   36  32  87 W5        30.28R WCI  32
LARAMIE        CLOUDY    35  29  78 NW10      30.24R WCI  27
CHEYENNE       CLOUDY    39  30  70 N9        30.23R WCI  33
TORRINGTON     MOCLDY    44  32  62 N14G24    30.18R
PINE BLUFFS    CLOUDY    37  32  81 NW13      30.21R WCI  29

$$


USA.gov is the U.S. government's official web portal to all federal, state and local government web resources and services.